28-01-2022, 00:00:07,    249,    0.0,    2.1,   0.00,   0.00, 1029.0,   80.6, -999.0
28-01-2022, 00:00:17,    249,    0.0,    2.1,   0.00,   0.00, 1029.0,   80.5, -999.0
28-01-2022, 00:00:27,    249,    0.0,    2.1,   0.00,   0.00, 1029.0,   80.7, -999.0
28-01-2022, 00:00:37,    249,    0.0,    2.1,   0.00,   0.00, 1029.0,   80.6, -999.0
28-01-2022, 00:00:47,    249,    0.0,    2.1,   0.00,   0.00, 1029.1,   80.7, -999.0
28-01-2022, 00:00:57,    249,    0.0,    2.1,   0.00,   0.00, 1029.1,   80.7, -999.0
28-01-2022, 00:01:07,    249,    0.0,    2.1,   0.00,   0.00, 1029.0,   80.5, -999.0
28-01-2022, 00:01:17,    249,    0.0,    2.1,   0.00,   0.00, 1029.0,   80.6, -999.0
28-01-2022, 00:01:27,    249,    0.0,    2.1,   0.00,   0.00, 1029.0,   80.6, -999.0
28-01-2022, 00:01:37,    249,    0.0,    2.1,   0.00,   0.00, 1029.0,   80.5, -999.0
28-01-2022, 00:01:47,    253,    0.0,    2.1,   0.00,   0.00, 1029.0,   80.6, -999.0
28-01-2022, 00:01:57,    249,    0.0,    2.1,   0.00,   0.00, 1029.1,   80.5, -999.0
28-01-2022, 00:02:07,    249,    0.0,    2.1,   0.00,   0.00, 1029.1,   80.6, -999.0
28-01-2022, 00:02:17,    249,    0.0,    2.0,   0.00,   0.00, 1029.1,   80.6, -999.0
28-01-2022, 00:02:27,    249,    0.0,    2.1,   0.00,   0.00, 1029.1,   80.7, -999.0
28-01-2022, 00:02:37,    249,    0.0,    2.1,   0.00,   0.00, 1029.0,   80.5, -999.0
28-01-2022, 00:02:46,    249,    0.0,    2.1,   0.00,   0.00, 1029.0,   80.6, -999.0
28-01-2022, 00:02:56,    250,    0.0,    2.1,   0.00,   0.00, 1029.0,   80.6, -999.0
28-01-2022, 00:03:07,    249,    0.0,    2.0,   0.00,   0.00, 1029.0,   80.6, -999.0
28-01-2022, 00:03:16,    249,    0.0,    2.0,   0.00,   0.00, 1029.0,   80.6, -999.0
28-01-2022, 00:03:26,    249,    0.0,    2.1,   0.00,   0.00, 1029.0,   80.6, -999.0
28-01-2022, 00:03:36,    249,    0.0,    2.1,   0.00,   0.00, 1029.0,   80.7, -999.0
28-01-2022, 00:03:46,    249,    0.0,    2.1,   0.00,   0.00, 1029.0,   80.7, -999.0
28-01-2022, 00:03:56,    249,    0.0,    2.1,   0.00,   0.00, 1029.0,   80.7, -999.0
28-01-2022, 00:04:06,    249,    0.0,    2.0,   0.00,   0.00, 1029.0,   80.7, -999.0
28-01-2022, 00:04:16,    249,    0.0,    2.1,   0.00,   0.00, 1029.0,   80.6, -999.0
28-01-2022, 00:04:26,    249,    0.0,    2.1,   0.00,   0.00, 1029.0,   80.7, -999.0
28-01-2022, 00:04:36,    250,    0.0,    2.1,   0.00,   0.00, 1029.0,   80.6, -999.0
28-01-2022, 00:04:46,    249,    0.0,    2.1,   0.00,   0.00, 1029.0,   80.7, -999.0
28-01-2022, 00:04:56,    249,    0.0,    2.0,   0.00,   0.00, 1029.0,   80.7, -999.0
28-01-2022, 00:05:06,    249,    0.0,    2.0,   0.00,   0.00, 1029.0,   80.7, -999.0
28-01-2022, 00:05:16,    249,    0.0,    2.1,   0.00,   0.00, 1029.0,   80.7, -999.0
28-01-2022, 00:05:26,    252,    0.0,    1.9,   0.00,   0.00, 1029.0,   80.8, -999.0
28-01-2022, 00:05:36,    249,    0.0,    2.0,   0.00,   0.00, 1029.0,   80.8, -999.0
28-01-2022, 00:05:46,    249,    0.0,    2.0,   0.00,   0.00, 1029.0,   80.7, -999.0
28-01-2022, 00:05:55,    249,    0.0,    2.0,   0.00,   0.00, 1029.0,   80.7, -999.0
28-01-2022, 00:06:05,    249,    0.0,    2.0,   0.00,   0.00, 1029.0,   80.8, -999.0
28-01-2022, 00:06:16,    249,    0.0,    2.1,   0.00,   0.00, 1029.0,   80.8, -999.0
28-01-2022, 00:06:25,    249,    0.0,    2.1,   0.00,   0.00, 1029.0,   80.7, -999.0
28-01-2022, 00:06:35,    250,    0.0,    2.0,   0.00,   0.00, 1029.0,   80.8, -999.0
28-01-2022, 00:06:45,    249,    0.0,    2.0,   0.00,   0.00, 1029.0,   80.8, -999.0
28-01-2022, 00:06:55,    250,    0.0,    2.0,   0.00,   0.00, 1029.0,   80.8, -999.0
28-01-2022, 00:07:05,    249,    0.1,    2.0,   0.00,   0.00, 1029.1,   81.0, -999.0
28-01-2022, 00:07:15,    250,    0.0,    2.1,   0.00,   0.00, 1029.0,   80.8, -999.0
28-01-2022, 00:07:25,    249,    0.0,    2.0,   0.00,   0.00, 1029.0,   80.8, -999.0
28-01-2022, 00:07:35,    249,    0.0,    1.9,   0.00,   0.00, 1029.0,   80.8, -999.0
28-01-2022, 00:07:45,    250,    0.0,    2.1,   0.00,   0.00, 1029.0,   80.9, -999.0
28-01-2022, 00:07:55,    249,    0.0,    2.0,   0.00,   0.00, 1029.0,   80.9, -999.0
28-01-2022, 00:08:05,    244,    0.1,    2.1,   0.00,   0.00, 1029.1,   81.1, -999.0
28-01-2022, 00:08:15,    243,    0.3,    2.2,   0.00,   0.00, 1029.1,   81.2, -999.0
28-01-2022, 00:08:25,    248,    0.0,    2.1,   0.00,   0.00, 1029.0,   80.9, -999.0
28-01-2022, 00:08:35,    247,    0.4,    2.1,   0.00,   0.00, 1029.1,   81.2, -999.0
28-01-2022, 00:08:45,    247,    0.2,    2.2,   0.00,   0.00, 1029.1,   81.2, -999.0
28-01-2022, 00:08:55,    248,    0.0,    2.1,   0.00,   0.00, 1029.0,   81.0, -999.0
28-01-2022, 00:09:05,    248,    0.3,    2.1,   0.00,   0.00, 1029.1,   81.3, -999.0
28-01-2022, 00:09:14,    251,    0.5,    2.1,   0.00,   0.00, 1029.2,   81.3, -999.0
28-01-2022, 00:09:25,    250,    0.0,    2.1,   0.00,   0.00, 1029.0,   80.9, -999.0
28-01-2022, 00:09:34,    250,    0.0,    2.0,   0.00,   0.00, 1029.0,   80.9, -999.0
28-01-2022, 00:09:44,    250,    0.0,    2.0,   0.00,   0.00, 1029.0,   80.9, -999.0
28-01-2022, 00:09:54,    253,    0.5,    2.1,   0.00,   0.00, 1029.2,   81.2, -999.0
28-01-2022, 00:10:04,    273,    0.6,    2.1,   0.00,   0.00, 1029.1,   81.3, -999.0
28-01-2022, 00:10:14,    273,    0.1,    2.1,   0.00,   0.00, 1029.1,   81.1, -999.0
28-01-2022, 00:10:24,    272,    0.1,    2.1,   0.00,   0.00, 1029.1,   81.1, -999.0
28-01-2022, 00:10:34,    238,    0.1,    2.1,   0.00,   0.00, 1029.1,   81.0, -999.0
28-01-2022, 00:10:44,    240,    0.1,    2.1,   0.00,   0.00, 1029.1,   81.1, -999.0
28-01-2022, 00:10:54,    239,    0.0,    2.0,   0.00,   0.00, 1029.0,   81.0, -999.0
28-01-2022, 00:11:04,    239,    0.0,    2.0,   0.00,   0.00, 1029.1,   81.0, -999.0
28-01-2022, 00:11:14,    241,    0.3,    2.1,   0.00,   0.00, 1029.1,   81.2, -999.0
28-01-2022, 00:11:24,    241,    0.2,    2.1,   0.00,   0.00, 1029.1,   81.1, -999.0
28-01-2022, 00:11:34,    242,    0.0,    2.1,   0.00,   0.00, 1029.1,   81.0, -999.0
28-01-2022, 00:11:44,    243,    0.4,    2.1,   0.00,   0.00, 1029.2,   81.3, -999.0
28-01-2022, 00:11:54,    242,    0.1,    2.1,   0.00,   0.00, 1029.2,   81.2, -999.0
28-01-2022, 00:12:04,    279,    0.6,    2.1,   0.00,   0.00, 1029.2,   81.3, -999.0
28-01-2022, 00:12:14,    279,    0.6,    2.1,   0.00,   0.00, 1029.2,   81.2, -999.0
28-01-2022, 00:12:23,    262,    1.6,    2.1,   0.00,   0.00, 1029.3,   81.3, -999.0
28-01-2022, 00:12:34,    263,    1.1,    2.1,   0.00,   0.00, 1029.2,   81.4, -999.0
28-01-2022, 00:12:43,    267,    0.5,    2.1,   0.00,   0.00, 1029.2,   81.4, -999.0
28-01-2022, 00:12:53,    266,    0.2,    2.1,   0.00,   0.00, 1029.2,   81.3, -999.0
28-01-2022, 00:13:04,    258,    0.3,    2.1,   0.00,   0.00, 1029.2,   81.3, -999.0
28-01-2022, 00:13:13,    225,    0.4,    2.0,   0.00,   0.00, 1029.3,   81.4, -999.0
28-01-2022, 00:13:23,    270,    0.7,    2.1,   0.00,   0.00, 1029.2,   81.5, -999.0
28-01-2022, 00:13:33,    269,    0.8,    2.1,   0.00,   0.00, 1029.3,   81.5, -999.0
28-01-2022, 00:13:43,    269,    0.4,    2.1,   0.00,   0.00, 1029.2,   81.5, -999.0
28-01-2022, 00:13:53,    243,    0.2,    2.1,   0.00,   0.00, 1029.2,   81.2, -999.0
28-01-2022, 00:14:03,    243,    0.6,    2.1,   0.00,   0.00, 1029.3,   81.4, -999.0
28-01-2022, 00:14:13,    245,    1.2,    2.1,   0.00,   0.00, 1029.3,   81.4, -999.0
28-01-2022, 00:14:23,    256,    1.1,    2.1,   0.00,   0.00, 1029.2,   81.4, -999.0
28-01-2022, 00:14:33,    255,    0.2,    2.1,   0.00,   0.00, 1029.2,   81.3, -999.0
28-01-2022, 00:14:43,    256,    0.0,    2.0,   0.00,   0.00, 1029.1,   81.1, -999.0
28-01-2022, 00:14:53,    250,    0.8,    2.0,   0.00,   0.00, 1029.2,   81.5, -999.0
28-01-2022, 00:15:03,    251,    0.3,    2.1,   0.00,   0.00, 1029.3,   81.5, -999.0
28-01-2022, 00:15:13,    250,    1.0,    2.2,   0.00,   0.00, 1029.3,   81.5, -999.0
28-01-2022, 00:15:22,    249,    0.2,    2.0,   0.00,   0.00, 1029.2,   81.4, -999.0
28-01-2022, 00:15:33,    250,    0.0,    2.0,   0.00,   0.00, 1029.2,   81.2, -999.0
28-01-2022, 00:15:43,    249,    0.0,    2.0,   0.00,   0.00, 1029.1,   81.1, -999.0
28-01-2022, 00:15:52,    250,    0.1,    2.0,   0.00,   0.00, 1029.2,   81.1, -999.0
28-01-2022, 00:16:02,    249,    0.6,    2.1,   0.00,   0.00, 1029.3,   81.5, -999.0
28-01-2022, 00:16:13,    249,    0.2,    2.1,   0.00,   0.00, 1029.3,   81.2, -999.0
28-01-2022, 00:16:22,    249,    0.1,    2.0,   0.00,   0.00, 1029.2,   81.2, -999.0
28-01-2022, 00:16:32,    249,    0.3,    2.0,   0.00,   0.00, 1029.3,   81.3, -999.0
28-01-2022, 00:16:42,    252,    0.4,    2.0,   0.00,   0.00, 1029.3,   81.4, -999.0
28-01-2022, 00:16:52,    270,    0.5,    2.1,   0.00,   0.00, 1029.3,   81.5, -999.0
28-01-2022, 00:17:02,    270,    0.3,    2.0,   0.00,   0.00, 1029.2,   81.4, -999.0
28-01-2022, 00:17:12,    269,    0.0,    1.9,   0.00,   0.00, 1029.1,   81.1, -999.0
28-01-2022, 00:17:22,    270,    0.1,    2.0,   0.00,   0.00, 1029.1,   81.3, -999.0
28-01-2022, 00:17:32,    270,    0.1,    2.0,   0.00,   0.00, 1029.2,   81.2, -999.0
28-01-2022, 00:17:42,    257,    0.6,    2.1,   0.00,   0.00, 1029.3,   81.4, -999.0
28-01-2022, 00:17:52,    257,    0.1,    2.0,   0.00,   0.00, 1029.1,   81.2, -999.0
28-01-2022, 00:18:02,    257,    0.0,    1.9,   0.00,   0.00, 1029.1,   81.0, -999.0
28-01-2022, 00:18:12,    256,    0.0,    2.0,   0.00,   0.00, 1029.1,   81.0, -999.0
28-01-2022, 00:18:22,    256,    0.1,    2.0,   0.00,   0.00, 1029.2,   81.2, -999.0
28-01-2022, 00:18:31,    257,    0.2,    1.9,   0.00,   0.00, 1029.2,   81.3, -999.0
28-01-2022, 00:18:42,    256,    0.1,    2.1,   0.00,   0.00, 1029.2,   81.3, -999.0
28-01-2022, 00:18:52,    256,    0.6,    2.1,   0.00,   0.00, 1029.3,   81.5, -999.0
28-01-2022, 00:19:01,    256,    0.2,    2.0,   0.00,   0.00, 1029.2,   81.3, -999.0
28-01-2022, 00:19:11,    256,    0.0,    1.9,   0.00,   0.00, 1029.1,   81.1, -999.0
28-01-2022, 00:19:22,    257,    0.0,    1.9,   0.00,   0.00, 1029.1,   81.1, -999.0
28-01-2022, 00:19:31,    257,    0.1,    1.9,   0.00,   0.00, 1029.2,   81.3, -999.0
28-01-2022, 00:19:41,    256,    1.0,    2.0,   0.00,   0.00, 1029.3,   81.4, -999.0
28-01-2022, 00:19:51,    254,    0.3,    2.0,   0.00,   0.00, 1029.3,   81.4, -999.0
28-01-2022, 00:20:01,    254,    0.1,    1.9,   0.00,   0.00, 1029.2,   81.2, -999.0
28-01-2022, 00:20:11,    254,    0.0,    1.9,   0.00,   0.00, 1029.2,   81.2, -999.0
28-01-2022, 00:20:21,    254,    0.0,    2.0,   0.00,   0.00, 1029.2,   81.1, -999.0
28-01-2022, 00:20:31,    256,    0.1,    2.0,   0.00,   0.00, 1029.2,   81.3, -999.0
28-01-2022, 00:20:41,    256,    0.0,    2.0,   0.00,   0.00, 1029.2,   81.3, -999.0
28-01-2022, 00:20:51,    256,    0.1,    2.1,   0.00,   0.00, 1029.2,   81.4, -999.0
28-01-2022, 00:21:01,    231,    0.3,    2.0,   0.00,   0.00, 1029.3,   81.5, -999.0
28-01-2022, 00:21:11,    236,    0.0,    2.0,   0.00,   0.00, 1029.2,   81.3, -999.0
28-01-2022, 00:21:21,    240,    0.4,    2.0,   0.00,   0.00, 1029.3,   81.5, -999.0
28-01-2022, 00:21:31,    245,    1.4,    2.0,   0.00,   0.00, 1029.3,   81.6, -999.0
28-01-2022, 00:21:41,    245,    0.3,    2.0,   0.00,   0.00, 1029.3,   81.4, -999.0
28-01-2022, 00:21:51,    245,    0.1,    1.9,   0.00,   0.00, 1029.2,   81.5, -999.0
28-01-2022, 00:22:01,    250,    0.0,    1.9,   0.00,   0.00, 1029.2,   81.2, -999.0
28-01-2022, 00:22:10,    244,    0.0,    1.9,   0.00,   0.00, 1029.1,   81.2, -999.0
28-01-2022, 00:22:21,    261,    0.8,    2.0,   0.00,   0.00, 1029.3,   81.6, -999.0
28-01-2022, 00:22:31,    262,    1.2,    2.0,   0.00,   0.00, 1029.3,   81.6, -999.0
28-01-2022, 00:22:40,    262,    0.3,    2.0,   0.00,   0.00, 1029.3,   81.5, -999.0
28-01-2022, 00:22:50,    261,    0.1,    1.9,   0.00,   0.00, 1029.2,   81.3, -999.0
28-01-2022, 00:23:00,    262,    0.0,    1.9,   0.00,   0.00, 1029.2,   81.2, -999.0
28-01-2022, 00:23:10,    262,    0.0,    1.9,   0.00,   0.00, 1029.1,   81.2, -999.0
28-01-2022, 00:23:20,    262,    0.0,    1.9,   0.00,   0.00, 1029.1,   81.2, -999.0
28-01-2022, 00:23:30,    254,    0.1,    1.9,   0.00,   0.00, 1029.2,   81.4, -999.0
28-01-2022, 00:23:40,    254,    0.2,    2.0,   0.00,   0.00, 1029.3,   81.6, -999.0
28-01-2022, 00:23:50,    253,    0.0,    1.9,   0.00,   0.00, 1029.2,   81.3, -999.0
28-01-2022, 00:24:00,    253,    0.0,    1.9,   0.00,   0.00, 1029.2,   81.3, -999.0
28-01-2022, 00:24:10,    253,    0.0,    1.9,   0.00,   0.00, 1029.2,   81.3, -999.0
28-01-2022, 00:24:20,    253,    0.0,    1.9,   0.00,   0.00, 1029.2,   81.4, -999.0
28-01-2022, 00:24:30,    251,    0.0,    1.9,   0.00,   0.00, 1029.2,   81.4, -999.0
28-01-2022, 00:24:40,    250,    0.0,    1.9,   0.00,   0.00, 1029.2,   81.4, -999.0
28-01-2022, 00:24:50,    247,    0.9,    2.0,   0.00,   0.00, 1029.3,   81.7, -999.0
28-01-2022, 00:25:00,    247,    0.3,    1.9,   0.00,   0.00, 1029.3,   81.8, -999.0
28-01-2022, 00:25:10,    247,    0.1,    2.0,   0.00,   0.00, 1029.3,   81.7, -999.0
28-01-2022, 00:25:19,    247,    0.0,    1.9,   0.00,   0.00, 1029.2,   81.4, -999.0
28-01-2022, 00:25:30,    247,    0.0,    1.9,   0.00,   0.00, 1029.2,   81.4, -999.0
28-01-2022, 00:25:40,    247,    0.0,    1.9,   0.00,   0.00, 1029.2,   81.4, -999.0
28-01-2022, 00:25:49,    247,    0.0,    1.9,   0.00,   0.00, 1029.2,   81.5, -999.0
28-01-2022, 00:26:00,    247,    0.0,    1.9,   0.00,   0.00, 1029.2,   81.5, -999.0
28-01-2022, 00:26:09,    247,    0.0,    1.9,   0.00,   0.00, 1029.2,   81.4, -999.0
28-01-2022, 00:26:19,    247,    0.3,    2.0,   0.00,   0.00, 1029.3,   81.8, -999.0
28-01-2022, 00:26:29,    247,    0.0,    1.9,   0.00,   0.00, 1029.2,   81.4, -999.0
28-01-2022, 00:26:39,    247,    0.0,    2.0,   0.00,   0.00, 1029.1,   81.5, -999.0
28-01-2022, 00:26:49,    247,    0.0,    2.0,   0.00,   0.00, 1029.2,   81.5, -999.0
28-01-2022, 00:26:59,    247,    0.0,    1.9,   0.00,   0.00, 1029.2,   81.5, -999.0
28-01-2022, 00:27:09,    248,    0.0,    1.9,   0.00,   0.00, 1029.1,   81.4, -999.0
28-01-2022, 00:27:19,    247,    0.2,    1.9,   0.00,   0.00, 1029.2,   81.6, -999.0
28-01-2022, 00:27:29,    247,    0.1,    2.0,   0.00,   0.00, 1029.2,   81.6, -999.0
28-01-2022, 00:27:39,    247,    0.0,    1.9,   0.00,   0.00, 1029.2,   81.5, -999.0
28-01-2022, 00:27:49,    247,    0.0,    2.0,   0.00,   0.00, 1029.1,   81.6, -999.0
28-01-2022, 00:27:59,    247,    0.0,    1.9,   0.00,   0.00, 1029.2,   81.6, -999.0
28-01-2022, 00:28:09,    247,    0.0,    1.8,   0.00,   0.00, 1029.2,   81.4, -999.0
28-01-2022, 00:28:19,    247,    0.0,    1.9,   0.00,   0.00, 1029.2,   81.6, -999.0
28-01-2022, 00:28:29,    247,    0.0,    2.0,   0.00,   0.00, 1029.2,   81.5, -999.0
28-01-2022, 00:28:39,    247,    0.0,    1.9,   0.00,   0.00, 1029.1,   81.4, -999.0
28-01-2022, 00:28:48,    247,    0.0,    1.9,   0.00,   0.00, 1029.2,   81.5, -999.0
28-01-2022, 00:28:58,    247,    0.0,    1.8,   0.00,   0.00, 1029.2,   81.4, -999.0
28-01-2022, 00:29:09,    247,    0.0,    1.9,   0.00,   0.00, 1029.2,   81.3, -999.0
28-01-2022, 00:29:18,    247,    0.0,    1.9,   0.00,   0.00, 1029.2,   81.4, -999.0
28-01-2022, 00:29:28,    249,    0.0,    1.8,   0.00,   0.00, 1029.2,   81.4, -999.0
28-01-2022, 00:29:38,    249,    0.0,    1.8,   0.00,   0.00, 1029.2,   81.3, -999.0
28-01-2022, 00:29:48,    249,    0.0,    1.8,   0.00,   0.00, 1029.2,   81.4, -999.0
28-01-2022, 00:29:58,    248,    0.0,    1.8,   0.00,   0.00, 1029.2,   81.4, -999.0
28-01-2022, 00:30:08,    244,    0.0,    1.8,   0.00,   0.00, 1029.2,   81.4, -999.0
28-01-2022, 00:30:18,    243,    0.1,    1.9,   0.00,   0.00, 1029.2,   81.5, -999.0
28-01-2022, 00:30:28,    244,    0.1,    1.8,   0.00,   0.00, 1029.2,   81.5, -999.0
28-01-2022, 00:30:38,    246,    0.1,    1.8,   0.00,   0.00, 1029.2,   81.5, -999.0
28-01-2022, 00:30:48,    245,    0.0,    1.8,   0.00,   0.00, 1029.2,   81.4, -999.0
28-01-2022, 00:30:58,    245,    0.0,    1.8,   0.00,   0.00, 1029.2,   81.5, -999.0
28-01-2022, 00:31:08,    246,    0.4,    1.9,   0.00,   0.00, 1029.3,   81.7, -999.0
28-01-2022, 00:31:18,    247,    0.0,    1.8,   0.00,   0.00, 1029.2,   81.5, -999.0
28-01-2022, 00:31:28,    248,    0.0,    1.8,   0.00,   0.00, 1029.2,   81.4, -999.0
28-01-2022, 00:31:38,    250,    0.2,    1.8,   0.00,   0.00, 1029.2,   81.6, -999.0
28-01-2022, 00:31:48,    250,    0.0,    1.9,   0.00,   0.00, 1029.2,   81.5, -999.0
28-01-2022, 00:31:57,    250,    0.0,    1.8,   0.00,   0.00, 1029.2,   81.5, -999.0
28-01-2022, 00:32:07,    250,    0.0,    1.7,   0.00,   0.00, 1029.2,   81.4, -999.0
28-01-2022, 00:32:18,    251,    0.0,    1.8,   0.00,   0.00, 1029.2,   81.4, -999.0
28-01-2022, 00:32:27,    250,    0.0,    1.8,   0.00,   0.00, 1029.1,   81.4, -999.0
28-01-2022, 00:32:37,    250,    0.0,    1.8,   0.00,   0.00, 1029.2,   81.5, -999.0
28-01-2022, 00:32:48,    250,    0.0,    1.8,   0.00,   0.00, 1029.2,   81.5, -999.0
28-01-2022, 00:32:57,    250,    0.0,    1.8,   0.00,   0.00, 1029.2,   81.6, -999.0
28-01-2022, 00:33:07,    250,    0.0,    1.8,   0.00,   0.00, 1029.2,   81.7, -999.0
28-01-2022, 00:33:17,    250,    0.0,    1.8,   0.00,   0.00, 1029.2,   81.6, -999.0
28-01-2022, 00:33:27,    250,    0.0,    1.8,   0.00,   0.00, 1029.2,   81.6, -999.0
28-01-2022, 00:33:37,    250,    0.0,    1.6,   0.00,   0.00, 1029.2,   81.6, -999.0
28-01-2022, 00:33:47,    250,    0.0,    1.8,   0.00,   0.00, 1029.2,   81.6, -999.0
28-01-2022, 00:33:57,    251,    0.0,    1.8,   0.00,   0.00, 1029.2,   81.6, -999.0
28-01-2022, 00:34:07,    250,    0.0,    1.8,   0.00,   0.00, 1029.2,   81.7, -999.0
28-01-2022, 00:34:17,    251,    0.0,    1.8,   0.00,   0.00, 1029.1,   81.6, -999.0
28-01-2022, 00:34:27,    251,    0.0,    1.8,   0.00,   0.00, 1029.2,   81.7, -999.0
28-01-2022, 00:34:37,    250,    0.0,    1.9,   0.00,   0.00, 1029.2,   81.7, -999.0
28-01-2022, 00:34:47,    250,    0.0,    1.9,   0.00,   0.00, 1029.2,   81.6, -999.0
28-01-2022, 00:34:57,    251,    0.0,    1.8,   0.00,   0.00, 1029.2,   81.7, -999.0
28-01-2022, 00:35:06,    251,    0.0,    1.8,   0.00,   0.00, 1029.1,   81.7, -999.0
28-01-2022, 00:35:17,    251,    0.0,    1.8,   0.00,   0.00, 1029.2,   81.7, -999.0
28-01-2022, 00:35:27,    251,    0.0,    1.7,   0.00,   0.00, 1029.2,   81.7, -999.0
28-01-2022, 00:35:36,    252,    0.0,    1.8,   0.00,   0.00, 1029.1,   81.7, -999.0
28-01-2022, 00:35:46,    252,    0.1,    1.9,   0.00,   0.00, 1029.3,   82.0, -999.0
28-01-2022, 00:35:57,    252,    0.0,    1.7,   0.00,   0.00, 1029.2,   81.7, -999.0
28-01-2022, 00:36:06,    253,    0.0,    1.7,   0.00,   0.00, 1029.1,   81.7, -999.0
28-01-2022, 00:36:16,    252,    0.0,    1.8,   0.00,   0.00, 1029.1,   81.7, -999.0
28-01-2022, 00:36:26,    253,    0.0,    1.8,   0.00,   0.00, 1029.2,   81.8, -999.0
28-01-2022, 00:36:36,    254,    0.1,    1.8,   0.00,   0.00, 1029.3,   82.0, -999.0
28-01-2022, 00:36:46,    254,    0.0,    1.8,   0.00,   0.00, 1029.2,   81.9, -999.0
28-01-2022, 00:36:56,    254,    0.0,    1.8,   0.00,   0.00, 1029.2,   81.7, -999.0
28-01-2022, 00:37:06,    254,    0.0,    1.7,   0.00,   0.00, 1029.2,   82.0, -999.0
28-01-2022, 00:37:16,    254,    0.0,    1.8,   0.00,   0.00, 1029.2,   81.8, -999.0
28-01-2022, 00:37:26,    254,    0.3,    1.8,   0.00,   0.00, 1029.3,   82.1, -999.0
28-01-2022, 00:37:36,    254,    0.0,    1.8,   0.00,   0.00, 1029.2,   81.9, -999.0
28-01-2022, 00:37:46,    254,    0.0,    1.7,   0.00,   0.00, 1029.1,   81.8, -999.0
28-01-2022, 00:37:56,    254,    0.3,    1.8,   0.00,   0.00, 1029.2,   81.9, -999.0
28-01-2022, 00:38:06,    254,    0.2,    1.8,   0.00,   0.00, 1029.2,   82.1, -999.0
28-01-2022, 00:38:15,    254,    0.0,    1.7,   0.00,   0.00, 1029.2,   81.8, -999.0
28-01-2022, 00:38:26,    254,    0.0,    1.7,   0.00,   0.00, 1029.2,   81.8, -999.0
28-01-2022, 00:38:36,    254,    0.0,    1.8,   0.00,   0.00, 1029.2,   82.0, -999.0
28-01-2022, 00:38:45,    254,    0.0,    1.7,   0.00,   0.00, 1029.2,   81.8, -999.0
28-01-2022, 00:38:55,    254,    0.0,    1.8,   0.00,   0.00, 1029.2,   81.9, -999.0
28-01-2022, 00:39:06,    254,    0.0,    1.8,   0.00,   0.00, 1029.2,   81.9, -999.0
28-01-2022, 00:39:15,    254,    0.0,    1.8,   0.00,   0.00, 1029.2,   81.8, -999.0
28-01-2022, 00:39:25,    254,    0.0,    1.8,   0.00,   0.00, 1029.1,   82.0, -999.0
28-01-2022, 00:39:35,    254,    0.0,    1.7,   0.00,   0.00, 1029.2,   82.0, -999.0
28-01-2022, 00:39:45,    254,    0.0,    1.7,   0.00,   0.00, 1029.1,   81.9, -999.0
28-01-2022, 00:39:55,    254,    0.0,    1.8,   0.00,   0.00, 1029.2,   82.0, -999.0
28-01-2022, 00:40:05,    254,    0.0,    1.8,   0.00,   0.00, 1029.1,   81.9, -999.0
28-01-2022, 00:40:15,    254,    0.0,    1.7,   0.00,   0.00, 1029.2,   82.0, -999.0
28-01-2022, 00:40:25,    254,    0.0,    1.8,   0.00,   0.00, 1029.2,   81.9, -999.0
28-01-2022, 00:40:35,    254,    0.0,    1.8,   0.00,   0.00, 1029.2,   82.1, -999.0
28-01-2022, 00:40:45,    254,    0.0,    1.8,   0.00,   0.00, 1029.1,   82.0, -999.0
28-01-2022, 00:40:55,    254,    0.0,    1.8,   0.00,   0.00, 1029.2,   82.1, -999.0
28-01-2022, 00:41:05,    254,    0.0,    1.8,   0.00,   0.00, 1029.2,   82.1, -999.0
28-01-2022, 00:41:15,    254,    0.0,    1.8,   0.00,   0.00, 1029.3,   82.2, -999.0
28-01-2022, 00:41:24,    254,    0.2,    1.7,   0.00,   0.00, 1029.3,   82.4, -999.0
28-01-2022, 00:41:35,    254,    0.0,    1.8,   0.00,   0.00, 1029.1,   82.2, -999.0
28-01-2022, 00:41:45,    254,    0.0,    1.9,   0.00,   0.00, 1029.2,   82.1, -999.0
28-01-2022, 00:41:54,    254,    0.0,    1.8,   0.00,   0.00, 1029.2,   82.2, -999.0
28-01-2022, 00:42:04,    254,    0.0,    1.8,   0.00,   0.00, 1029.2,   82.2, -999.0
28-01-2022, 00:42:15,    254,    0.0,    1.8,   0.00,   0.00, 1029.2,   82.1, -999.0
28-01-2022, 00:42:24,    254,    0.0,    1.8,   0.00,   0.00, 1029.2,   82.1, -999.0
28-01-2022, 00:42:34,    254,    0.0,    1.7,   0.00,   0.00, 1029.2,   82.2, -999.0
28-01-2022, 00:42:45,    254,    0.0,    1.8,   0.00,   0.00, 1029.2,   82.0, -999.0
28-01-2022, 00:42:54,    254,    0.0,    1.9,   0.00,   0.00, 1029.2,   82.0, -999.0
28-01-2022, 00:43:04,    254,    0.0,    1.8,   0.00,   0.00, 1029.2,   82.1, -999.0
28-01-2022, 00:43:14,    254,    0.0,    1.7,   0.00,   0.00, 1029.2,   82.2, -999.0
28-01-2022, 00:43:24,    254,    0.0,    1.7,   0.00,   0.00, 1029.2,   82.1, -999.0
28-01-2022, 00:43:34,    255,    0.0,    1.8,   0.00,   0.00, 1029.2,   82.1, -999.0
28-01-2022, 00:43:44,    254,    0.0,    1.9,   0.00,   0.00, 1029.2,   82.1, -999.0
28-01-2022, 00:43:54,    254,    0.0,    1.8,   0.00,   0.00, 1029.2,   82.1, -999.0
28-01-2022, 00:44:04,    254,    0.0,    1.8,   0.00,   0.00, 1029.2,   82.2, -999.0
28-01-2022, 00:44:14,    255,    0.0,    1.7,   0.00,   0.00, 1029.3,   82.2, -999.0
28-01-2022, 00:44:24,    255,    0.0,    1.7,   0.00,   0.00, 1029.2,   82.2, -999.0
28-01-2022, 00:44:34,    255,    0.0,    1.8,   0.00,   0.00, 1029.2,   82.1, -999.0
28-01-2022, 00:44:44,    255,    0.0,    1.7,   0.00,   0.00, 1029.2,   82.2, -999.0
28-01-2022, 00:44:54,    255,    0.0,    1.7,   0.00,   0.00, 1029.2,   82.2, -999.0
28-01-2022, 00:45:03,    255,    0.0,    1.8,   0.00,   0.00, 1029.2,   82.2, -999.0
28-01-2022, 00:45:14,    255,    0.0,    1.7,   0.00,   0.00, 1029.2,   82.1, -999.0
28-01-2022, 00:45:24,    255,    0.0,    1.7,   0.00,   0.00, 1029.2,   82.1, -999.0
28-01-2022, 00:45:33,    255,    0.0,    1.7,   0.00,   0.00, 1029.2,   82.2, -999.0
28-01-2022, 00:45:43,    255,    0.0,    1.7,   0.00,   0.00, 1029.2,   82.2, -999.0
28-01-2022, 00:45:53,    255,    0.0,    1.6,   0.00,   0.00, 1029.2,   82.3, -999.0
28-01-2022, 00:46:03,    255,    0.0,    1.7,   0.00,   0.00, 1029.2,   82.2, -999.0
28-01-2022, 00:46:13,    256,    0.0,    1.7,   0.00,   0.00, 1029.2,   82.3, -999.0
28-01-2022, 00:46:23,    256,    0.0,    1.6,   0.00,   0.00, 1029.2,   82.2, -999.0
28-01-2022, 00:46:33,    256,    0.0,    1.6,   0.00,   0.00, 1029.2,   82.2, -999.0
28-01-2022, 00:46:43,    256,    0.0,    1.7,   0.00,   0.00, 1029.2,   82.2, -999.0